Waarnemingen

Advertentie
Mijn weer
Hoorn-A, Nederland (6212): temperatuur & dauwpunt: 15.07.2017 06:00:00 - 21.07.2017 06:00:00 (CEST)Hoorn-A, Nederland (6212): windsnelheid & windstoten: 15.07.2017 06:00:00 - 21.07.2017 06:00:00 (CEST)Hoorn-A, Nederland (6212): windrichting: 15.07.2017 06:00:00 - 21.07.2017 06:00:00 (CEST)Hoorn-A, Nederland (6212): luchtdruk: 15.07.2017 06:00:00 - 21.07.2017 06:00:00 (CEST)Hoorn-A, Nederland (6212): zicht: 15.07.2017 06:00:00 - 21.07.2017 06:00:00 (CEST)
Datum & Tijd tt [°C] td [°C] ff [km/u] ff [kn] fx [km/u] fx [kn] dd ppp [hPa] vv [km]
21.07.2017 06:00:00 17,7 11,9 18 10 22 12 - 1012,2 48
21.07.2017 05:00:00 17,6 12,4 22 12 - - - 1011,9 10
21.07.2017 04:00:00 17,7 13,6 16 9 18 10 Z 1011,9 10
21.07.2017 03:00:00 17,1 12,7 16 9 18 10 Z 1012,1 10
21.07.2017 02:00:00 16,5 12,0 11 6 - - Z 1012,0 10
21.07.2017 01:00:00 16,3 11,2 11 6 14 8 - 1012,0 10
21.07.2017 00:00:00 16,2 10,4 11 6 22 12 - 1011,8 46
20.07.2017 23:00:00 16,2 10,0 24 13 - - W 1011,6 10
20.07.2017 22:00:00 16,1 10,7 35 19 40 21 W 1010,7 10
20.07.2017 21:00:00 16,0 12,3 32 18 47 25 - 1009,7 41
20.07.2017 20:00:00 16,2 12,8 40 21 - - W 1008,5 27
20.07.2017 19:00:00 16,8 14,5 40 21 50 27 W 1007,4 17
20.07.2017 18:00:00 18,7 16,5 44 24 43 23 - 1006,5 10
20.07.2017 17:00:00 19,1 16,5 41 22 40 21 - 1006,6 10
20.07.2017 16:00:00 18,9 16,6 35 19 36 19 - 1006,5 10
20.07.2017 15:00:00 18,8 16,6 31 17 32 18 - 1006,5 10
20.07.2017 14:00:00 18,8 16,8 31 17 - - - 1006,3 10
20.07.2017 13:00:00 18,8 17,6 34 18 32 18 - 1006,1 10
20.07.2017 12:00:00 18,8 17,4 35 19 32 18 - 1006,4 10
20.07.2017 11:00:00 18,5 17,2 28 15 - - - 1006,4 10
20.07.2017 10:00:00 18,5 16,9 18 10 25 14 - 1006,3 17
20.07.2017 09:00:00 18,4 16,9 22 12 25 14 - 1006,4 15
20.07.2017 08:00:00 18,4 17,1 28 15 - - - 1006,1 10
20.07.2017 07:00:00 18,5 17,2 31 17 32 18 - 1005,6 10
20.07.2017 06:00:00 18,6 17,3 31 17 29 16 - 1005,9 10
20.07.2017 05:00:00 18,7 17,5 31 17 - - - 1006,0 10
20.07.2017 04:00:00 18,8 17,6 34 18 32 18 - 1006,3 10
20.07.2017 03:00:00 19,3 17,0 34 18 32 18 - 1006,5 10
20.07.2017 02:00:00 19,5 16,7 34 18 - - - 1006,9 10
20.07.2017 01:00:00 19,2 17,2 29 16 32 18 - 1007,2 18
20.07.2017 00:00:00 19,5 17,4 28 15 29 16 - 1007,4 10
19.07.2017 23:00:00 19,6 17,6 26 14 - - Z 1007,5 10
19.07.2017 22:00:00 19,7 17,6 26 14 25 14 - 1007,5 10
19.07.2017 21:00:00 20,0 17,5 21 11 22 12 Z 1006,9 10
19.07.2017 20:00:00 20,3 17,5 18 10 - - - 1007,0 10
19.07.2017 19:00:00 21,0 17,3 22 12 25 14 - 1006,7 10
19.07.2017 18:00:00 21,0 17,3 31 17 29 16 - 1006,5 10
19.07.2017 17:00:00 21,2 17,4 26 14 - - - 1006,6 10
19.07.2017 16:00:00 22,5 17,2 37 20 36 19 Z 1006,8 10
19.07.2017 15:00:00 22,9 18,1 34 18 36 19 ZZO 1006,5 10
19.07.2017 14:00:00 22,5 17,6 42 23 - - ZO 1006,9 10
19.07.2017 13:00:00 21,9 16,7 41 22 40 21 - 1007,0 10
19.07.2017 12:00:00 20,5 16,9 39 21 43 23 OZO 1008,4 10
19.07.2017 11:00:00 19,9 16,5 42 23 47 25 - 1008,0 10
19.07.2017 10:00:00 19,3 15,8 40 21 47 25 - 1007,9 23
19.07.2017 09:00:00 18,7 15,5 52 28 50 27 - 1008,6 10
19.07.2017 08:00:00 18,1 15,2 46 25 - - - 1008,9 10
19.07.2017 07:00:00 18,1 14,9 40 21 50 27 - 1010,1 27
19.07.2017 06:00:00 18,3 15,2 50 27 47 25 - 1010,8 10
19.07.2017 05:00:00 18,5 14,9 50 27 50 27 - 1011,2 10
19.07.2017 04:00:00 18,6 15,1 46 25 47 25 - 1012,4 10
19.07.2017 03:00:00 18,8 15,3 48 26 47 25 - 1013,2 10
19.07.2017 02:00:00 18,9 15,5 44 24 - - - 1014,0 10
19.07.2017 01:00:00 19,0 16,0 44 24 43 23 - 1014,9 10
19.07.2017 00:00:00 18,6 16,1 44 24 43 23 - 1014,9 10
18.07.2017 23:00:00 18,6 16,5 44 24 - - - 1015,7 10
18.07.2017 22:00:00 18,6 16,2 46 25 47 25 - 1015,7 10
18.07.2017 21:00:00 18,6 16,1 40 21 43 23 - 1016,1 22
18.07.2017 20:00:00 18,6 15,9 44 24 - - - 1016,8 10
18.07.2017 19:00:00 18,7 15,6 42 23 40 21 - 1017,4 10
18.07.2017 18:00:00 18,6 15,3 41 22 36 19 - 1017,7 10
18.07.2017 17:00:00 19,3 13,3 35 19 - - - 1018,4 10
18.07.2017 16:00:00 18,8 12,2 29 16 32 18 - 1019,0 43
18.07.2017 15:00:00 18,4 11,7 29 16 29 16 - 1019,8 10
18.07.2017 14:00:00 17,8 12,0 25 14 - - - 1020,4 38
18.07.2017 13:00:00 17,5 11,8 28 15 25 14 - 1021,0 10
18.07.2017 12:00:00 17,2 12,4 26 14 25 14 - 1021,5 10
18.07.2017 11:00:00 17,1 12,2 24 13 22 12 - 1021,9 10
18.07.2017 10:00:00 17,3 12,7 22 12 22 12 - 1022,0 10
18.07.2017 09:00:00 17,3 12,5 24 13 22 12 - 1021,9 10
18.07.2017 08:00:00 17,2 13,0 21 11 22 12 - 1022,0 10
18.07.2017 07:00:00 17,1 12,8 21 11 22 12 - 1022,0 10
18.07.2017 06:00:00 17,1 13,4 18 10 18 10 - 1022,2 10
18.07.2017 05:00:00 17,0 13,0 15 8 14 8 - 1022,2 10
18.07.2017 04:00:00 17,0 12,8 11 6 11 6 - 1022,6 10
18.07.2017 03:00:00 17,0 12,2 11 6 11 6 - 1022,8 10
18.07.2017 02:00:00 16,9 11,9 8 4 11 6 - 1022,9 10
18.07.2017 01:00:00 16,8 12,1 8 4 11 6 - 1023,1 10
18.07.2017 00:00:00 16,8 12,3 7 4 7 4 N 1023,2 49
17.07.2017 23:00:00 16,7 12,3 4 2 7 4 - 1023,3 10
17.07.2017 22:00:00 16,7 13,0 5 3 7 4 NNW 1023,3 10
17.07.2017 21:00:00 17,0 13,0 5 3 7 4 NNW 1023,1 10
17.07.2017 20:00:00 17,3 13,2 5 3 11 6 WNW 1023,1 10
17.07.2017 19:00:00 17,3 13,2 11 6 11 6 WNW 1023,3 10
17.07.2017 18:00:00 17,5 12,4 9 5 11 6 - 1023,5 10
17.07.2017 17:00:00 17,7 11,3 8 4 7 4 - 1023,8 10
17.07.2017 16:00:00 17,4 11,4 5 3 18 10 - 1023,9 10
17.07.2017 15:00:00 17,1 11,0 8 4 22 12 W 1023,8 10
17.07.2017 14:00:00 16,9 11,6 8 4 7 4 W 1024,1 10
17.07.2017 13:00:00 16,7 12,1 8 4 11 6 NW 1024,0 10
17.07.2017 12:00:00 16,7 11,9 11 6 11 6 NW 1024,0 10
17.07.2017 11:00:00 16,9 11,5 11 6 11 6 NW 1024,0 10
17.07.2017 10:00:00 16,8 11,3 11 6 11 6 NW 1023,9 10
17.07.2017 09:00:00 16,5 11,6 11 6 14 8 NW 1023,8 10
17.07.2017 08:00:00 16,4 12,2 15 8 14 8 NW 1023,6 10
17.07.2017 07:00:00 16,0 12,9 15 8 14 8 NW 1023,3 10
17.07.2017 06:00:00 16,0 12,8 9 5 11 6 NW 1023,0 10
17.07.2017 05:00:00 15,9 12,8 11 6 14 8 NNW 1022,8 10
17.07.2017 04:00:00 16,0 13,0 11 6 11 6 NNW 1022,6 10
17.07.2017 03:00:00 16,0 13,0 9 5 11 6 NNW 1022,8 10
17.07.2017 02:00:00 16,1 12,6 9 5 11 6 NNW 1022,7 10
17.07.2017 01:00:00 16,4 13,3 13 7 14 8 N 1022,7 10
17.07.2017 00:00:00 16,7 12,7 15 8 14 8 NNW 1022,7 10
16.07.2017 23:00:00 17,0 13,5 11 6 11 6 NNW 1022,5 10
16.07.2017 22:00:00 16,9 14,6 13 7 14 8 NNW 1022,7 10
16.07.2017 21:00:00 16,9 15,0 13 7 14 8 NW 1022,4 10
16.07.2017 20:00:00 17,1 15,3 13 7 14 8 NW 1022,1 10
16.07.2017 19:00:00 17,3 15,8 13 7 14 8 W 1022,2 10
16.07.2017 18:00:00 17,5 15,8 11 6 14 8 W 1022,3 10
16.07.2017 17:00:00 17,5 16,1 11 6 18 10 W 1022,4 10
16.07.2017 16:00:00 17,6 16,2 21 11 25 14 WNW 1022,1 10
16.07.2017 15:00:00 17,6 16,2 26 14 25 14 WNW 1021,8 10
16.07.2017 14:00:00 17,9 16,2 26 14 29 16 W 1021,6 10
16.07.2017 13:00:00 17,7 16,1 29 16 29 16 W 1021,2 10
16.07.2017 12:00:00 17,5 16,2 26 14 29 16 - 1020,9 10
16.07.2017 11:00:00 17,6 16,1 29 16 29 16 - 1020,9 10
16.07.2017 10:00:00 17,6 16,2 31 17 32 18 - 1020,6 10
16.07.2017 09:00:00 17,8 16,2 34 18 32 18 - 1020,2 10
16.07.2017 08:00:00 17,9 16,4 29 16 32 18 - 1019,8 10
16.07.2017 07:00:00 17,9 16,5 31 17 32 18 - 1019,7 10
16.07.2017 06:00:00 17,9 16,5 34 18 36 19 - 1019,5 10
16.07.2017 05:00:00 17,9 16,4 34 18 36 19 - 1019,5 10
16.07.2017 04:00:00 17,9 16,2 39 21 40 21 - 1019,5 10
16.07.2017 03:00:00 17,8 16,2 37 20 36 19 - 1019,6 10
16.07.2017 02:00:00 17,4 16,4 35 19 36 19 - 1020,1 5
16.07.2017 01:00:00 17,4 16,1 37 20 36 19 - 1020,4 9
16.07.2017 00:00:00 17,0 15,7 34 18 32 18 - 1020,3 10
15.07.2017 23:00:00 17,0 15,6 37 20 32 18 - 1020,5 10
15.07.2017 22:00:00 16,8 15,2 28 15 29 16 - 1020,7 10
15.07.2017 21:00:00 16,3 14,3 29 16 36 19 - 1020,5 10
15.07.2017 20:00:00 17,3 14,3 34 18 36 19 - 1020,6 10
15.07.2017 19:00:00 17,9 13,6 31 17 32 18 - 1020,5 10
15.07.2017 18:00:00 17,8 13,4 26 14 32 18 - 1020,9 10
15.07.2017 17:00:00 17,7 12,2 31 17 32 18 - 1020,9 10
15.07.2017 16:00:00 17,5 11,6 26 14 29 16 - 1021,2 10
15.07.2017 15:00:00 17,0 12,3 22 12 25 14 - 1021,8 10
15.07.2017 14:00:00 16,7 10,9 26 14 25 14 - 1021,8 10
15.07.2017 13:00:00 16,5 12,0 26 14 25 14 - 1021,8 10
15.07.2017 12:00:00 16,9 12,2 18 10 22 12 - 1021,5 10
15.07.2017 11:00:00 16,7 11,9 15 8 14 8 - 1021,7 10
15.07.2017 10:00:00 16,4 10,9 13 7 14 8 - 1021,6 10
15.07.2017 09:00:00 16,5 11,0 15 8 14 8 - 1021,2 10
15.07.2017 08:00:00 16,3 10,7 16 9 18 10 W 1021,2 10
15.07.2017 07:00:00 16,0 10,5 21 11 22 12 WNW 1020,9 10
15.07.2017 06:00:00 15,9 10,8 24 13 25 14 WNW 1020,5 10

tt = temperatuur
td = dauwpunt
ff = windsnelheid
fx = windstoten
dd = windrichting
ppp = luchtdruk
vv = zicht

Weerstations in de omgeving